Weather History for Maple Lake, MN

Change the Weather History Date:

Thursday, April 25, 2013

  Actual Average (KSTC) Record (KSTC)
Temperature  
Mean Temperature 40 °F 49 °F  
Max Temperature 50 °F 62 °F 88 °F (1962)
Min Temperature 30 °F 37 °F 21 °F (1907)
Degree Days  
Heating Degree Days 26 16  
Month to date heating degree days 544  
Since 1 July heating degree days 8094  
Cooling Degree Days 0 0  
Month to date cooling degree days 0  
Year to date cooling degree days 0  
Moisture  
Dew Point 31 °F    
Average Humidity 73    
Maximum Humidity 96    
Minimum Humidity 47    
Precipitation  
Precipitation 0.01 in 0.10 in 1.17 in (1954)
Month to date precipitation 2.06  
Year to date precipitation 4.85  
Snow  
Snow 0.00 in 0.10 in 6.20 in (1950)
Month to date snowfall 2.8  
Since 1 July snowfall 45.5  
Snow Depth -    
Sea Level Pressure  
Sea Level Pressure 30.11 in    
Wind  
Wind Speed 8 mph (SW)    
Max Wind Speed 14 mph    
Max Gust Speed 17 mph    
Visibility 10 miles    
Events Snow    
T = Trace of Precipitation, MM = Missing Value Source: NWS Daily Summary

Daily Weather History Graph

Daily Weather History Graph

Search for Another Location

Airport:

Trip Planner

Search our weather history database for the weather conditions in past years. The results will help you decide how hot, cold, wet, or windy it might be!

Date:

Astronomy

Apr. 25, 2013 Rise Set
Actual Time 6:13 AM CDT 8:14 PM CDT
Civil Twilight 5:41 AM CDT 8:46 PM CDT
Nautical Twilight 5:02 AM CDT 9:26 PM CDT
Astronomical Twilight 4:19 AM CDT 10:09 PM CDT
Moon 8:30 PM CDT 5:57 AM CDT
Length of Visible Light 15h 05m
Length of Day
14h 01m
Full, 100% of the Moon is Illuminated
Apr 25
Full
Apr 25
Full
May 2
Last Quarter
May 9
New
May 17
First Quarter

Hourly Weather History & Observations

Time (CDT) Temp. Windchill Dew Point Humidity Pressure Visibility Wind Dir Wind Speed Gust Speed Precip Events Conditions
12:16 AM 33.8 °F 25.3 °F 32.9 °F 96% 30.00 in 1.5 mi WNW 11.5 mph 16.1 mph 0.01 in Snow Light Snow
12:36 AM 33.8 °F 24.8 °F 32.7 °F 96% 30.00 in 5.0 mi WNW 12.7 mph 17.3 mph 0.01 in Snow Light Snow
12:56 AM 33.8 °F 25.8 °F 32.0 °F 93% 30.01 in 10.0 mi WNW 10.4 mph 17.3 mph 0.01 in   Overcast
1:16 AM 33.8 °F 24.8 °F 32.0 °F 93% 30.02 in 10.0 mi WNW 12.7 mph 17.3 mph N/A   Overcast
1:36 AM 33.3 °F 25.7 °F 31.6 °F 94% 30.03 in 10.0 mi WNW 9.2 mph - N/A   Overcast
1:56 AM 32.9 °F 23.7 °F 31.1 °F 93% 30.03 in 10.0 mi WNW 12.7 mph - N/A   Overcast
2:16 AM 32.9 °F 24.7 °F 30.9 °F 92% 30.04 in 10.0 mi WNW 10.4 mph - N/A   Overcast
2:37 AM 32.9 °F 23.2 °F 30.6 °F 91% 30.04 in 10.0 mi WNW 13.8 mph - N/A   Overcast
2:56 AM 32.9 °F 25.3 °F 30.6 °F 91% 30.05 in 10.0 mi WNW 9.2 mph - N/A   Overcast
3:16 AM 32.9 °F 25.3 °F 30.7 °F 92% 30.05 in 10.0 mi WNW 9.2 mph - N/A   Overcast
3:36 AM 32.9 °F 25.9 °F 30.7 °F 92% 30.05 in 10.0 mi West 8.1 mph - N/A   Overcast
3:56 AM 32.0 °F 24.8 °F 30.2 °F 93% 30.06 in 10.0 mi WNW 8.1 mph - N/A   Mostly Cloudy
4:16 AM 32.4 °F 25.3 °F 30.4 °F 92% 30.07 in 10.0 mi West 8.1 mph - N/A   Mostly Cloudy
4:36 AM 32.0 °F 24.8 °F 30.0 °F 92% 30.07 in 10.0 mi WNW 8.1 mph - N/A   Mostly Cloudy
4:56 AM 32.0 °F 25.6 °F 29.3 °F 90% 30.08 in 10.0 mi West 6.9 mph - N/A   Scattered Clouds
5:16 AM 31.5 °F 24.9 °F 28.9 °F 90% 30.08 in 10.0 mi West 6.9 mph - N/A   Clear
5:36 AM 31.1 °F 25.4 °F 28.8 °F 91% 30.09 in 10.0 mi West 5.8 mph - N/A   Clear
5:56 AM 30.9 °F 24.3 °F 28.6 °F 91% 30.10 in 10.0 mi West 6.9 mph - N/A   Clear
6:16 AM 30.6 °F 24.7 °F 28.4 °F 92% 30.11 in 10.0 mi West 5.8 mph - N/A   Clear
6:36 AM 30.6 °F 25.8 °F 28.2 °F 91% 30.11 in 10.0 mi West 4.6 mph - N/A   Clear
6:56 AM 30.9 °F 24.3 °F 28.4 °F 90% 30.13 in 10.0 mi West 6.9 mph - N/A   Clear
7:16 AM 31.1 °F 25.4 °F 28.4 °F 90% 30.14 in 10.0 mi West 5.8 mph - N/A   Clear
7:36 AM 31.6 °F 23.7 °F 28.8 °F 89% 30.14 in 10.0 mi West 9.2 mph - N/A   Clear
7:56 AM 31.8 °F 23.9 °F 28.6 °F 88% 30.16 in 10.0 mi West 9.2 mph - N/A   Clear
8:16 AM 32.0 °F 24.2 °F 28.9 °F 88% 30.17 in 10.0 mi West 9.2 mph - N/A   Clear
8:36 AM 32.2 °F 24.4 °F 29.1 °F 88% 30.17 in 10.0 mi West 9.2 mph - N/A   Clear
8:56 AM 32.9 °F 25.9 °F 29.3 °F 87% 30.17 in 10.0 mi West 8.1 mph - N/A   Clear
9:16 AM 33.6 °F 26.8 °F 29.8 °F 86% 30.18 in 10.0 mi West 8.1 mph - N/A   Clear
9:36 AM 34.2 °F 27.5 °F 30.0 °F 85% 30.19 in 10.0 mi West 8.1 mph - N/A   Clear
9:56 AM 35.1 °F 29.3 °F 30.9 °F 85% 30.19 in 10.0 mi West 6.9 mph - N/A   Scattered Clouds
10:16 AM 35.4 °F 29.7 °F 31.1 °F 84% 30.20 in 10.0 mi West 6.9 mph - N/A   Mostly Cloudy
10:36 AM 35.8 °F 29.4 °F 30.9 °F 82% 30.20 in 10.0 mi West 8.1 mph - N/A   Mostly Cloudy
10:57 AM 36.9 °F 32.2 °F 31.1 °F 80% 30.19 in 10.0 mi SW 5.8 mph - N/A   Mostly Cloudy
11:16 AM 36.7 °F 34.1 °F 30.9 °F 80% 30.20 in 10.0 mi SW 3.5 mph - N/A   Mostly Cloudy
11:36 AM 37.9 °F 32.7 °F 31.3 °F 77% 30.19 in 10.0 mi SW 6.9 mph - N/A   Mostly Cloudy
11:57 AM 39.0 °F 34.0 °F 30.7 °F 72% 30.19 in 10.0 mi West 6.9 mph - N/A   Mostly Cloudy
12:16 PM 38.7 °F 35.2 °F 30.9 °F 74% 30.19 in 10.0 mi SW 4.6 mph - N/A   Overcast
12:36 PM 39.4 °F 36.1 °F 31.1 °F 72% 30.19 in 10.0 mi SW 4.6 mph - N/A   Overcast
12:56 PM 41.2 °F 37.3 °F 31.1 °F 67% 30.18 in 10.0 mi SSW 5.8 mph - N/A   Mostly Cloudy
1:16 PM 41.4 °F 38.4 °F 30.4 °F 65% 30.18 in 10.0 mi SSW 4.6 mph - N/A   Scattered Clouds
1:36 PM 42.8 °F 40.1 °F 31.5 °F 64% 30.17 in 10.0 mi South 4.6 mph - N/A   Scattered Clouds
1:56 PM 43.3 °F 39.2 °F 30.0 °F 59% 30.17 in 10.0 mi South 6.9 mph - N/A   Scattered Clouds
2:16 PM 44.1 °F 40.8 °F 31.3 °F 61% 30.16 in 10.0 mi SSW 5.8 mph - N/A   Clear
2:36 PM 45.0 °F 41.8 °F 29.5 °F 55% 30.16 in 10.0 mi South 5.8 mph - N/A   Clear
2:56 PM 45.5 °F 41.3 °F 29.8 °F 54% 30.15 in 10.0 mi SW 8.1 mph - N/A   Clear
3:16 PM 46.2 °F 43.3 °F 29.5 °F 52% 30.15 in 10.0 mi SSW 5.8 mph - N/A   Clear
3:36 PM 47.7 °F - 30.0 °F 50% 30.15 in 10.0 mi SSW 6.9 mph - N/A   Clear
3:56 PM 47.8 °F - 30.7 °F 52% 30.14 in 10.0 mi SSW 6.9 mph - N/A   Clear
4:16 PM 47.8 °F - 28.6 °F 47% 30.14 in 10.0 mi SSW 6.9 mph - N/A   Clear
4:36 PM 48.7 °F - 30.4 °F 49% 30.13 in 10.0 mi South 5.8 mph - N/A   Clear
4:56 PM 49.1 °F - 31.3 °F 50% 30.13 in 10.0 mi South 5.8 mph - N/A   Clear
5:16 PM 49.1 °F - 30.9 °F 50% 30.13 in 10.0 mi South 5.8 mph 16.1 mph N/A   Clear
5:36 PM 49.6 °F - 30.9 °F 49% 30.12 in 10.0 mi South 9.2 mph - N/A   Clear
5:56 PM 49.8 °F - 32.0 °F 50% 30.11 in 10.0 mi SSE 6.9 mph - N/A   Clear
6:16 PM 49.6 °F - 32.0 °F 51% 30.11 in 10.0 mi South 6.9 mph - N/A   Scattered Clouds
6:36 PM 49.8 °F - 32.0 °F 50% 30.10 in 10.0 mi SE 5.8 mph - N/A   Mostly Cloudy
6:56 PM 49.3 °F - 31.8 °F 51% 30.11 in 10.0 mi South 5.8 mph - N/A   Mostly Cloudy
7:16 PM 48.6 °F - 32.2 °F 53% 30.11 in 10.0 mi SSE 4.6 mph - N/A   Scattered Clouds
7:36 PM 47.5 °F - 32.5 °F 56% 30.10 in 10.0 mi SSE 5.8 mph - N/A   Scattered Clouds
7:56 PM 46.6 °F - 33.1 °F 59% 30.10 in 10.0 mi SE 4.6 mph - N/A   Scattered Clouds
8:16 PM 45.0 °F 42.6 °F 32.7 °F 62% 30.10 in 10.0 mi SE 4.6 mph - N/A   Clear
8:36 PM 43.9 °F 41.3 °F 32.5 °F 64% 30.10 in 10.0 mi SE 4.6 mph - N/A   Clear
8:56 PM 45.0 °F 41.8 °F 32.0 °F 60% 30.09 in 10.0 mi ESE 5.8 mph - N/A   Clear
9:16 PM 45.5 °F 41.3 °F 31.6 °F 58% 30.09 in 10.0 mi ESE 8.1 mph - N/A   Clear
9:36 PM 45.5 °F 41.8 °F 31.6 °F 58% 30.08 in 10.0 mi ESE 6.9 mph - N/A   Clear
9:56 PM 44.8 °F 40.4 °F 31.8 °F 60% 30.08 in 10.0 mi ESE 8.1 mph - N/A   Clear
10:16 PM 44.6 °F 40.2 °F 31.5 °F 60% 30.08 in 10.0 mi ESE 8.1 mph - N/A   Clear
10:36 PM 44.6 °F 40.7 °F 31.5 °F 60% 30.07 in 10.0 mi ESE 6.9 mph - N/A   Clear
10:56 PM 44.2 °F 40.3 °F 31.1 °F 60% 30.07 in 10.0 mi ESE 6.9 mph - N/A   Scattered Clouds
11:16 PM 44.2 °F 40.3 °F 31.1 °F 60% 30.06 in 10.0 mi ESE 6.9 mph - N/A   Clear
11:35 PM 44.4 °F 40.0 °F 31.3 °F 60% 30.05 in 10.0 mi ESE 8.1 mph - N/A   Scattered Clouds
11:56 PM 44.8 °F 41.0 °F 31.6 °F 60% 30.05 in 10.0 mi ESE 6.9 mph - N/A   Mostly Cloudy